Location: Unspecified
(47.9110°N, 14.3980°E)
Time: 19:56:44
(UTC+00:00)

Cosmos 1743 Rocket - Pass Details

Date: 06 August 2020
Orbit: 603 x 633 km, 82.6° (Epoch: 22 September)

Event Time Altitude Azimuth Distance (km) Brightness Sun altitude
Rises 19:14:35 0° 187° (S) 2,891 6.7 -7.3°
Reaches altitude 10° 19:16:47 10° 187° (S) 1,994 5.9 -7.6°
Maximum altitude 19:21:13 89° 112° (ESE) 636 3.6 -8.2°
Drops below altitude 10° 19:25:43 10° 10° (N) 2,025 6.6 -8.8°
Sets 19:27:59 0° 10° (N) 2,940 7.4 -9.1°
